KAC125 OBBI-OKKK

Flight info

Callsign KAC125
Flight time 0h 43m
Altitude 26000
Route BHR A453 KUMBO/N0394F240 A453 DEBTI
Aircraft A320/M-SDE3FGHIRWY/LB1

Departure

Time 2026-05-04 18:00
Airport Bahrain International Airport (OBBI)

Arrival

Time 2026-05-04 18:44
Airport Kuwait International Airport (OKKK)
Time Latitude Longitude Altitude Speed Heading
2026-05-04 16:44 26.26891 50.62966 22 ft 0 kts 213°
2026-05-04 17:47 26.26903 50.62975 23 ft 4 kts 211°
2026-05-04 17:47 26.26927 50.62989 21 ft 4 kts 203°
2026-05-04 17:48 26.26952 50.62998 23 ft 4 kts 181°
2026-05-04 17:48 26.26972 50.62992 24 ft 2 kts 123°
2026-05-04 17:48 26.26973 50.62991 24 ft 0 kts 122°
2026-05-04 17:52 26.26972 50.62993 24 ft 3 kts 122°
2026-05-04 17:52 26.26957 50.63019 24 ft 5 kts 122°
2026-05-04 17:52 26.26916 50.63092 21 ft 13 kts 122°
2026-05-04 17:52 26.26866 50.63178 23 ft 13 kts 122°
2026-05-04 17:53 26.26821 50.63258 23 ft 11 kts 122°
2026-05-04 17:53 26.26779 50.63327 21 ft 10 kts 124°
2026-05-04 17:53 26.26743 50.63390 21 ft 11 kts 121°
2026-05-04 17:53 26.26694 50.63476 23 ft 16 kts 122°
2026-05-04 17:54 26.26627 50.63593 22 ft 20 kts 123°
2026-05-04 17:54 26.26574 50.63730 21 ft 20 kts 76°
2026-05-04 17:54 26.26604 50.63767 21 ft 1 kts 39°
2026-05-04 17:54 26.26608 50.63833 22 ft 18 kts 115°
2026-05-04 17:55 26.26516 50.63991 23 ft 27 kts 122°
2026-05-04 17:55 26.26411 50.64176 20 ft 29 kts 122°
2026-05-04 17:55 26.26299 50.64370 18 ft 31 kts 123°
2026-05-04 17:55 26.26182 50.64571 20 ft 31 kts 122°
2026-05-04 17:56 26.26066 50.64778 20 ft 32 kts 122°
2026-05-04 17:56 26.26030 50.64933 20 ft 0 kts 56°
2026-05-04 17:59 26.26041 50.64952 22 ft 12 kts 56°
2026-05-04 17:59 26.26130 50.64999 20 ft 16 kts 345°
2026-05-04 17:59 26.26273 50.64766 17 ft 27 kts 302°
2026-05-04 18:00 26.26521 50.64342 15 ft 101 kts 303°
2026-05-04 18:00 26.27006 50.63503 15 ft 154 kts 303°
2026-05-04 18:00 26.27632 50.62455 478 ft 163 kts 306°
2026-05-04 18:00 26.28244 50.61387 1238 ft 163 kts 303°
2026-05-04 18:01 26.28832 50.60234 1713 ft 181 kts 300°
2026-05-04 18:01 26.29565 50.58998 2064 ft 204 kts 316°
2026-05-04 18:01 26.30964 50.58443 2628 ft 230 kts 350°
2026-05-04 18:02 26.34333 50.58875 3936 ft 257 kts
2026-05-04 18:02 26.36167 50.59188 4102 ft 273 kts
2026-05-04 18:02 26.38063 50.59444 4134 ft 275 kts 358°
2026-05-04 18:02 26.39970 50.59574 4138 ft 271 kts 348°
2026-05-04 18:03 26.41784 50.59157 4356 ft 266 kts 334°
2026-05-04 18:03 26.43544 50.58510 5368 ft 267 kts 334°
2026-05-04 18:03 26.45313 50.57856 6319 ft 269 kts 334°
2026-05-04 18:03 26.47105 50.57192 7231 ft 273 kts 334°
2026-05-04 18:04 26.48925 50.56518 8116 ft 277 kts 334°
2026-05-04 18:04 26.50735 50.55850 9240 ft 265 kts 334°
2026-05-04 18:04 26.54072 50.54630 11496 ft 248 kts 333°
2026-05-04 18:05 26.55714 50.54014 12269 ft 250 kts 333°
2026-05-04 18:05 26.57373 50.53387 13009 ft 253 kts 333°
2026-05-04 18:05 26.59051 50.52752 13733 ft 256 kts 333°
2026-05-04 18:05 26.60726 50.52120 14424 ft 259 kts 333°
2026-05-04 18:06 26.64185 50.50820 15783 ft 265 kts 334°
2026-05-04 18:06 26.65938 50.50162 16461 ft 267 kts 334°
2026-05-04 18:06 26.67733 50.49482 16847 ft 282 kts 333°
2026-05-04 18:07 26.69581 50.48571 16989 ft 299 kts 324°
2026-05-04 18:07 26.71278 50.47330 17941 ft 280 kts 316°
2026-05-04 18:07 26.72723 50.45951 18926 ft 269 kts 311°
2026-05-04 18:07 26.74089 50.44523 19616 ft 269 kts 311°
2026-05-04 18:08 26.75454 50.43084 20214 ft 271 kts 310°
2026-05-04 18:08 26.76829 50.41630 20769 ft 274 kts 310°
2026-05-04 18:08 26.78223 50.40155 21316 ft 277 kts 311°
2026-05-04 18:08 26.79631 50.38664 21836 ft 280 kts 311°
2026-05-04 18:09 26.82506 50.35625 22867 ft 287 kts 311°
2026-05-04 18:09 26.85416 50.32538 23847 ft 293 kts 311°
2026-05-04 18:10 26.86905 50.30957 24321 ft 296 kts 311°
2026-05-04 18:10 26.88408 50.29362 24796 ft 299 kts 311°
2026-05-04 18:10 26.89926 50.27752 25242 ft 302 kts 311°
2026-05-04 18:10 26.91463 50.26121 25691 ft 305 kts 311°
2026-05-04 18:11 26.93026 50.24459 25901 ft 317 kts 311°
2026-05-04 18:11 26.94665 50.22715 25943 ft 333 kts 311°
2026-05-04 18:11 26.96385 50.20881 25945 ft 349 kts 311°
2026-05-04 18:11 26.98184 50.18962 25945 ft 365 kts 312°
2026-05-04 18:12 27.00065 50.16959 25944 ft 380 kts 312°
2026-05-04 18:12 27.02010 50.14894 25943 ft 391 kts 312°
2026-05-04 18:12 27.04015 50.12762 25945 ft 404 kts 312°
2026-05-04 18:12 27.05940 50.10419 25943 ft 413 kts 307°
2026-05-04 18:13 27.07835 50.07934 25944 ft 425 kts 307°
2026-05-04 18:13 27.09777 50.05384 25945 ft 436 kts 307°
2026-05-04 18:13 27.13779 50.00123 25942 ft 454 kts 307°
2026-05-04 18:14 27.15840 49.97411 25942 ft 460 kts 307°
2026-05-04 18:14 27.17928 49.94663 25943 ft 462 kts 307°
2026-05-04 18:14 27.19337 49.92808 25943 ft 463 kts 307°
2026-05-04 18:15 27.23517 49.87305 25943 ft 463 kts 307°
2026-05-04 18:15 27.27699 49.81795 25942 ft 463 kts 307°
2026-05-04 18:15 27.29759 49.79072 25943 ft 463 kts 307°
2026-05-04 18:16 27.31841 49.76313 25942 ft 463 kts 307°
2026-05-04 18:16 27.33925 49.73553 25940 ft 463 kts 307°
2026-05-04 18:16 27.36009 49.70792 25937 ft 462 kts 307°
2026-05-04 18:17 27.40172 49.65276 25932 ft 462 kts 307°
2026-05-04 18:17 27.42249 49.62521 25930 ft 462 kts 307°
2026-05-04 18:17 27.46407 49.57000 25926 ft 462 kts 307°
2026-05-04 18:18 27.48587 49.54335 25927 ft 465 kts 314°
2026-05-04 18:18 27.51106 49.52024 25924 ft 467 kts 317°
2026-05-04 18:18 27.53656 49.49743 25924 ft 467 kts 318°
2026-05-04 18:18 27.56206 49.47465 25926 ft 468 kts 318°
2026-05-04 18:19 27.61307 49.42910 25926 ft 468 kts 318°
2026-05-04 18:19 27.63856 49.40630 25924 ft 468 kts 317°
2026-05-04 18:19 27.66404 49.38345 25924 ft 468 kts 317°
2026-05-04 18:20 27.68952 49.36055 25925 ft 468 kts 317°
2026-05-04 18:20 27.71495 49.33765 25925 ft 468 kts 317°
2026-05-04 18:20 27.74036 49.31476 25925 ft 468 kts 317°
2026-05-04 18:20 27.76550 49.29209 25925 ft 468 kts 317°
2026-05-04 18:21 27.79094 49.26915 25925 ft 468 kts 317°
2026-05-04 18:21 27.81635 49.24624 25925 ft 468 kts 317°
2026-05-04 18:21 27.84177 49.22331 25925 ft 468 kts 317°
2026-05-04 18:21 27.86722 49.20039 25925 ft 468 kts 319°
2026-05-04 18:22 27.89467 49.18031 25924 ft 472 kts 326°
2026-05-04 18:22 27.92314 49.16159 25926 ft 472 kts 326°
2026-05-04 18:22 27.95157 49.14301 25925 ft 473 kts 326°
2026-05-04 18:22 27.98005 49.12443 25926 ft 473 kts 326°
2026-05-04 18:23 28.00860 49.10579 25926 ft 473 kts 326°
2026-05-04 18:23 28.03707 49.08717 25927 ft 473 kts 326°
2026-05-04 18:23 28.06552 49.06850 25927 ft 473 kts 326°
2026-05-04 18:23 28.09401 49.04974 25626 ft 474 kts 326°
2026-05-04 18:24 28.12245 49.03100 25368 ft 474 kts 326°
2026-05-04 18:24 28.15090 49.01227 24783 ft 470 kts 326°
2026-05-04 18:24 28.17916 48.99365 23499 ft 472 kts 326°
2026-05-04 18:24 28.20765 48.97484 22601 ft 473 kts 326°
2026-05-04 18:25 28.23588 48.95620 22215 ft 462 kts 326°
2026-05-04 18:25 28.26284 48.93850 22018 ft 446 kts 326°
2026-05-04 18:25 28.28963 48.92092 21916 ft 435 kts 325°
2026-05-04 18:25 28.31574 48.90370 21945 ft 433 kts 325°
2026-05-04 18:26 28.34136 48.88670 21943 ft 432 kts 325°
2026-05-04 18:26 28.36729 48.86945 21943 ft 431 kts 325°
2026-05-04 18:26 28.39327 48.85216 21945 ft 437 kts 325°
2026-05-04 18:26 28.41993 48.83439 21945 ft 449 kts 325°
2026-05-04 18:27 28.44718 48.81622 21944 ft 458 kts 325°
2026-05-04 18:27 28.47480 48.79787 21943 ft 461 kts 326°
2026-05-04 18:27 28.50256 48.77946 21943 ft 462 kts 326°
2026-05-04 18:27 28.53036 48.76104 21943 ft 463 kts 326°
2026-05-04 18:28 28.55787 48.74214 21940 ft 460 kts 321°
2026-05-04 18:28 28.58212 48.71879 21944 ft 454 kts 310°
2026-05-04 18:28 28.60199 48.69115 21945 ft 451 kts 304°
2026-05-04 18:28 28.62086 48.66262 21943 ft 451 kts 304°
2026-05-04 18:29 28.63973 48.63411 21943 ft 451 kts 304°
2026-05-04 18:29 28.65864 48.60564 21943 ft 451 kts 304°
2026-05-04 18:29 28.67759 48.57717 21943 ft 451 kts 304°
2026-05-04 18:29 28.69652 48.54872 21943 ft 451 kts 304°
2026-05-04 18:30 28.73578 48.49354 21939 ft 456 kts 315°
2026-05-04 18:30 28.76264 48.47302 21947 ft 463 kts 327°
2026-05-04 18:30 28.79091 48.45530 21942 ft 463 kts 327°
2026-05-04 18:31 28.81924 48.43780 21943 ft 463 kts 327°
2026-05-04 18:31 28.84760 48.42037 21943 ft 463 kts 327°
2026-05-04 18:31 28.87602 48.40291 21866 ft 464 kts 327°
2026-05-04 18:31 28.90431 48.38544 21475 ft 454 kts 327°
2026-05-04 18:32 28.93141 48.36870 21336 ft 430 kts 327°
2026-05-04 18:32 28.95652 48.35319 21142 ft 399 kts 327°
2026-05-04 18:32 28.98002 48.33866 21013 ft 370 kts 326°
2026-05-04 18:32 29.00185 48.32515 20871 ft 345 kts 326°
2026-05-04 18:33 29.02248 48.31231 20420 ft 332 kts 326°
2026-05-04 18:33 29.04254 48.29972 19785 ft 326 kts 325°
2026-05-04 18:33 29.06223 48.28728 19117 ft 321 kts 325°
2026-05-04 18:33 29.08164 48.27504 18450 ft 318 kts 325°
2026-05-04 18:34 29.10091 48.26291 17789 ft 315 kts 325°
2026-05-04 18:34 29.11980 48.25110 17480 ft 300 kts 325°
2026-05-04 18:34 29.13779 48.23992 17136 ft 289 kts 327°
2026-05-04 18:34 29.15536 48.22896 16598 ft 286 kts 328°
2026-05-04 18:35 29.17275 48.21807 16074 ft 283 kts 328°
2026-05-04 18:35 29.18996 48.20727 15570 ft 280 kts 328°
2026-05-04 18:35 29.20675 48.19674 15070 ft 277 kts 327°
2026-05-04 18:35 29.22358 48.18620 14525 ft 275 kts 327°
2026-05-04 18:36 29.24035 48.17571 13984 ft 273 kts 327°
2026-05-04 18:36 29.25693 48.16530 13459 ft 271 kts 327°
2026-05-04 18:36 29.27341 48.15495 12947 ft 269 kts 327°
2026-05-04 18:36 29.28975 48.14468 12423 ft 266 kts 327°
2026-05-04 18:37 29.30592 48.13455 11905 ft 264 kts 328°
2026-05-04 18:37 29.32199 48.12446 11291 ft 264 kts 328°
2026-05-04 18:37 29.33856 48.11403 10246 ft 279 kts 329°
2026-05-04 18:37 29.35606 48.10300 9093 ft 295 kts 330°
2026-05-04 18:38 29.37454 48.09139 7834 ft 309 kts 331°
2026-05-04 18:38 29.39375 48.07935 6466 ft 322 kts 332°
2026-05-04 18:38 29.41349 48.06672 5457 ft 323 kts 327°
2026-05-04 18:38 29.42800 48.04876 5284 ft 296 kts 296°
2026-05-04 18:39 29.43164 48.02678 5156 ft 274 kts 263°
2026-05-04 18:39 29.42696 48.00657 4974 ft 254 kts 250°
2026-05-04 18:39 29.41984 47.98831 4552 ft 249 kts 245°
2026-05-04 18:39 29.41209 47.97072 4051 ft 246 kts 243°
2026-05-04 18:40 29.40444 47.95326 3893 ft 246 kts 244°
2026-05-04 18:40 29.39680 47.93570 3902 ft 251 kts 239°
2026-05-04 18:40 29.38561 47.92045 3892 ft 245 kts 219°
2026-05-04 18:40 29.37137 47.91091 3892 ft 230 kts 199°
2026-05-04 18:41 29.35631 47.90728 3892 ft 215 kts 181°
2026-05-04 18:41 29.34162 47.90885 3897 ft 211 kts 165°
2026-05-04 18:41 29.32805 47.91492 3899 ft 209 kts 154°
2026-05-04 18:41 29.31501 47.92187 3899 ft 210 kts 154°
2026-05-04 18:42 29.30130 47.92925 3289 ft 228 kts 154°
2026-05-04 18:42 29.28680 47.93720 2280 ft 234 kts 154°
2026-05-04 18:42 29.27217 47.94456 1050 ft 225 kts 155°
2026-05-04 18:42 29.25892 47.95175 516 ft 195 kts 153°
2026-05-04 18:43 29.24774 47.95772 312 ft 166 kts 154°
2026-05-04 18:43 29.23794 47.96287 170 ft 142 kts 154°
2026-05-04 18:43 29.22989 47.96719 163 ft 110 kts 154°
2026-05-04 18:43 29.22436 47.97012 164 ft 69 kts 155°
2026-05-04 18:44 29.22120 47.97182 166 ft 25 kts 154°
2026-05-04 18:44 29.22070 47.97209 167 ft 24 kts 154°
2026-05-04 18:44 29.21950 47.97384 165 ft 9 kts 109°
2026-05-04 18:44 29.21932 47.97440 165 ft 7 kts 110°
2026-05-04 18:45 29.21936 47.97489 166 ft 5 kts 58°
2026-05-04 18:45 29.21964 47.97504 166 ft 6 kts
2026-05-04 18:45 29.22041 47.97469 166 ft 14 kts 334°
2026-05-04 18:45 29.22121 47.97425 167 ft 12 kts 334°
2026-05-04 18:46 29.22194 47.97385 167 ft 14 kts 334°
2026-05-04 18:46 29.22325 47.97319 167 ft 27 kts 335°
2026-05-04 18:46 29.22509 47.97222 167 ft 30 kts 335°
2026-05-04 18:46 29.22700 47.97119 167 ft 31 kts 335°
2026-05-04 18:47 29.22896 47.97014 167 ft 31 kts 335°
2026-05-04 18:47 29.23080 47.96917 167 ft 30 kts 335°
2026-05-04 18:47 29.23268 47.96818 164 ft 25 kts 335°
2026-05-04 18:47 29.23432 47.96731 163 ft 27 kts 335°
2026-05-04 18:48 29.23611 47.96636 163 ft 29 kts 335°
2026-05-04 18:48 29.23796 47.96537 164 ft 30 kts 334°
2026-05-04 18:48 29.23980 47.96438 164 ft 28 kts 335°
2026-05-04 18:48 29.24107 47.96369 164 ft 13 kts 335°
2026-05-04 18:49 29.24188 47.96327 164 ft 12 kts 335°
2026-05-04 18:49 29.24257 47.96290 164 ft 10 kts 335°
2026-05-04 18:49 29.24317 47.96259 164 ft 9 kts 336°
2026-05-04 18:49 29.24395 47.96219 165 ft 15 kts 335°
2026-05-04 18:50 29.24483 47.96171 165 ft 13 kts 336°
2026-05-04 18:50 29.24562 47.96130 165 ft 12 kts 334°
2026-05-04 18:50 29.24631 47.96091 165 ft 10 kts 334°
2026-05-04 18:50 29.24693 47.96057 165 ft 9 kts 333°
2026-05-04 18:51 29.24747 47.96026 165 ft 8 kts 335°
2026-05-04 18:51 29.24796 47.96005 165 ft 7 kts 336°
2026-05-04 18:51 29.24837 47.95983 165 ft 6 kts 335°
2026-05-04 18:51 29.24879 47.95960 165 ft 7 kts 334°
2026-05-04 18:52 29.24925 47.95935 165 ft 9 kts 334°
2026-05-04 18:52 29.25002 47.95900 165 ft 10 kts 353°
2026-05-04 18:52 29.25039 47.95939 166 ft 6 kts 65°
2026-05-04 18:52 29.25036 47.95972 167 ft 3 kts 113°
2026-05-04 18:53 29.25035 47.95988 167 ft 1 kts 84°
2026-05-04 18:53 29.25037 47.95992 167 ft 3 kts 68°
2026-05-04 18:53 29.25048 47.96021 167 ft 2 kts 67°
2026-05-04 18:53 29.25052 47.96030 167 ft 1 kts 67°
2026-05-04 18:54 29.25052 47.96031 167 ft 0 kts 67°